Simultaneous Nadir Overpasses (SNOs) Predictions

Prediction of SNOs between METOP-A and NOAA-19 Satellite Orbit:

Table of predicted SNOs for the next 14.0 days since TLE Epoch: 11/30/2012
Index Date (METOP-A) Time (METOP-A) METOP-A Lat,Lon Date (NOAA-19) Time (NOAA-19) NOAA-19 Lat,Lon Distance(km) Time Diff (sec)
1 11/30/2012 18:08:43 73.48, -98.92 11/30/2012 18:07:31 73.53,-100.01 34.94 72
2 11/30/2012 18:59:29 -73.27, 67.93 11/30/2012 18:58:28 -73.24, 67.90 3.25 61
3 11/30/2012 19:50:09 73.21,-124.87 11/30/2012 19:49:29 73.24,-124.86 3.62 40
4 11/30/2012 20:40:51 -73.20, 42.43 11/30/2012 20:40:31 -73.20, 42.48 1.45 20
5 11/30/2012 21:31:31 73.19,-150.26 11/30/2012 21:31:33 73.20,-150.28 1.18 2
6 11/30/2012 22:22:13 -73.18, 17.05 11/30/2012 22:22:35 -73.15, 17.06 2.71 22
7 11/30/2012 23:12:53 73.17,-175.64 11/30/2012 23:13:37 73.15,-175.70 2.44 44
8 12/01/2012 00:03:36 -73.11, -8.45 12/01/2012 00:04:39 -73.11, -8.36 2.77 63
9 12/01/2012 00:54:24 72.69, 158.01 12/01/2012 00:55:33 72.71, 159.75 57.59 69
10 12/10/2012 16:20:06 73.85, -70.97 12/10/2012 16:18:58 73.82, -73.51 78.76 68
11 12/10/2012 17:10:59 -73.29, 95.07 12/10/2012 17:09:47 -73.27, 95.06 2.89 72
12 12/10/2012 18:01:40 73.22, -97.75 12/10/2012 18:00:51 73.24, -97.66 3.51 49
13 12/10/2012 18:52:22 -73.21, 69.56 12/10/2012 18:51:51 -73.22, 69.63 2.36 31
14 12/10/2012 19:43:02 73.20,-123.14 12/10/2012 19:42:55 73.20,-123.08 2.12 7
15 12/10/2012 20:33:44 -73.19, 44.17 12/10/2012 20:33:55 -73.18, 44.21 1.68 11
16 12/10/2012 21:24:24 73.17,-148.54 12/10/2012 21:24:59 73.15,-148.50 2.27 35
17 12/10/2012 22:15:06 -73.16, 18.77 12/10/2012 22:15:59 -73.14, 18.79 2.87 53
18 12/10/2012 23:05:49 72.99,-174.26 12/10/2012 23:07:02 73.06,-173.81 16.58 73




NCC Satellite Simultaneous Nadir Overpasses (SNOs) Prediction Service
